Wind_Speed
13 5 5 11 12 15 12 10 6 4 5 8 7 5 5 5 3 5 5 5 7 7 5 7 8 7 9 10 11 15 16 14 16 18 21 24 24 26 29 30 32 33 33 32 32 33 33 34 33 32 32 32 31 30 28 28 27 26 27 28 27 24 22 20 17 15 16 17 17 15 14 14 13 12 11 10 9 8 6 5 6 7 7 7 8 8
11 6 11 14 10 9 8 5 4 1 5 6 7 7 5 5 4 5 5 2 4 5 3 3 7 6 9 10 10 13 13 12 17 20 22 24 24 24 26 28 30 31 31 30 28 29 31 33 33 32 33 32 31 30 29 27 25 25 27 27 25 21 19 17 15 14 16 17 15 14 14 14 14 13 11 10 8 6 5 6 7 8 8 7 8 8
7 9 12 9 4 7 7 6 6 5 3 5 3 6 5 5 2 4 1 3 1 4 3 3 7 4 6 7 6 8 9 11 17 20 20 22 22 23 25 27 28 28 28 26 24 24 26 28 31 32 31 30 30 29 28 26 24 25 27 25 21 18 17 17 15 14 16 16 15 16 15 14 14 13 11 10 8 6 6 7 8 8 8 8 7 7
7 8 6 7 6 8 7 7 8 6 2 3 3 5 3 3 3 3 1 3 4 2 4 6 6 3 4 3 2 5 7 7 12 16 17 19 21 23 26 26 26 26 26 25 23 22 23 25 29 31 30 29 29 28 26 25 24 25 25 23 20 18 18 17 15 15 17 17 17 18 16 14 13 12 11 10 8 7 8 9 9 9 9 9 8 9
4 5 7 11 8 9 8 8 10 7 5 3 4 4 2 2 4 3 2 2 5 4 4 9 5 0 4 5 4 4 5 5 9 13 14 17 19 21 22 24 26 26 25 25 24 24 24 26 29 30 30 30 29 27 25 24 24 24 23 22 20 20 19 18 16 17 19 18 18 18 16 15 13 12 11 10 9 9 10 10 9 10 10 10 10 12
5 5 8 14 9 8 8 7 10 9 6 4 3 6 6 5 3 3 5 4 5 2 2 6 3 3 4 10 8 4 5 7 8 11 13 15 17 19 21 24 27 26 25 25 24 24 25 26 28 29 30 30 28 26 24 23 23 22 22 22 21 21 21 18 17 19 19 18 18 17 17 16 14 13 11 10 10 10 11 11 10 11 11 11 12 14
4 5 4 9 11 10 8 7 9 10 7 4 6 8 8 5 1 3 5 3 3 4 4 4 5 4 3 8 10 7 6 8 8 9 12 14 17 21 24 26 27 26 25 26 25 24 26 27 28 29 30 30 27 25 24 24 24 22 21 22 22 23 22 18 18 20 19 17 16 15 15 14 13 12 11 10 10 11 11 11 11 12 12 13 15 17
5 7 3 4 10 10 9 7 7 11 9 4 6 9 8 6 4 2 5 2 2 3 0 1 3 2 2 6 9 10 9 9 9 9 11 16 20 23 26 28 27 28 27 28 27 26 27 28 29 30 30 29 27 26 26 25 24 22 21 22 22 23 21 18 19 19 17 16 15 13 13 13 12 10 10 10 10 11 11 12 12 12 14 15 17 18
5 10 6 4 7 7 7 6 7 10 7 5 7 10 8 7 6 3 5 2 0 3 2 4 3 4 4 5 6 10 12 12 13 14 14 18 23 24 27 29 28 29 29 30 29 27 28 29 30 30 29 27 28 28 27 24 23 22 21 21 22 22 20 18 18 17 16 15 13 13 13 12 11 10 10 11 11 11 11 11 12 13 15 16 16 15
3 11 10 6 4 5 5 6 9 10 5 4 8 7 4 4 4 3 3 2 2 1 6 8 6 4 4 3 7 10 10 12 14 14 15 19 24 26 28 30 29 29 29 30 29 27 27 30 30 29 27 27 29 28 25 23 23 22 21 21 21 21 19 19 18 16 16 15 13 12 12 11 11 11 11 11 12 11 11 12 12 13 14 14 13 11
2 7 10 6 5 5 5 6 8 10 6 6 7 6 4 3 2 3 2 3 2 3 7 8 8 5 4 3 6 9 9 14 14 11 12 16 24 29 30 30 30 30 30 30 30 27 26 28 29 28 27 28 29 28 25 24 24 24 23 22 20 20 20 19 17 15 16 15 14 12 11 11 11 11 11 12 12 12 12 11 11 12 13 12 11 9
6 3 5 4 8 8 5 5 8 9 9 7 5 5 5 2 3 4 3 3 3 6 7 7 8 6 4 4 6 9 11 15 14 12 13 16 24 31 32 32 31 31 31 30 31 30 24 25 28 27 27 28 28 28 27 25 26 25 24 22 20 19 19 17 15 14 15 15 13 12 11 11 11 11 11 12 11 11 11 11 12 12 12 11 10 8
7 4 3 2 9 12 6 4 6 7 7 6 5 7 6 2 1 1 2 1 3 6 5 4 8 4 5 6 8 13 13 14 15 16 18 20 25 31 32 33 32 31 32 30 32 33 26 25 28 28 29 30 29 28 27 26 26 26 24 22 21 20 19 17 16 16 15 14 13 13 13 12 12 11 11 11 11 11 11 12 12 12 11 10 9 6
4 4 4 3 6 12 10 6 6 6 9 8 5 7 7 5 5 6 5 2 4 4 4 2 6 2 4 4 8 14 16 20 22 21 21 23 26 29 29 31 30 30 32 31 32 36 31 27 28 29 29 30 29 27 27 27 27 26 24 23 22 20 19 18 18 17 16 15 15 14 14 13 12 11 11 11 12 12 12 11 11 11 10 9 7 6
6 4 6 6 4 10 12 7 6 6 8 8 3 5 5 5 6 6 4 2 3 2 3 1 3 4 3 4 7 10 12 16 19 17 17 21 24 25 25 27 29 30 32 31 31 35 35 30 28 29 30 29 29 29 28 27 27 25 23 23 22 20 20 20 19 18 18 17 16 16 15 13 12 12 12 12 12 12 11 11 11 10 10 9 7 7
8 5 5 6 5 10 11 6 6 8 6 5 3 4 4 5 5 2 2 4 3 2 1 1 3 4 4 4 4 4 6 9 13 14 15 19 23 26 26 28 30 31 32 32 31 32 35 34 30 30 32 31 29 30 30 27 26 24 22 22 21 20 20 21 20 19 18 18 18 17 15 13 13 14 14 13 12 11 11 11 11 11 10 8 7 8
6 5 5 4 6 8 11 10 7 8 7 2 3 6 4 4 7 4 1 0 3 4 2 1 3 4 2 4 5 1 3 5 9 13 15 20 25 28 28 29 31 31 32 33 33 32 33 34 33 31 34 33 29 29 30 28 27 24 22 23 23 20 21 21 20 20 19 19 18 16 14 14 15 15 14 12 11 11 11 11 11 12 9 6 9 8
5 3 5 6 8 8 12 16 9 8 9 5 6 7 3 4 4 3 2 2 4 3 3 1 3 3 1 2 4 3 4 6 7 10 11 16 23 26 28 30 30 31 32 32 32 32 32 33 35 35 34 33 31 31 30 29 28 24 22 24 24 22 21 20 20 20 20 19 17 15 15 16 16 14 13 12 11 11 10 10 11 11 7 7 9 8
3 2 5 6 10 6 7 12 7 7 6 5 7 6 4 4 3 1 3 2 2 2 3 3 2 3 3 4 3 2 8 9 9 9 9 12 19 24 26 29 29 30 32 33 32 33 34 34 36 38 35 32 32 32 30 29 27 24 23 24 24 22 21 20 20 20 19 17 16 16 15 15 14 13 12 12 11 10 10 10 10 9 5 9 9 8
0 2 2 5 8 6 4 6 8 7 2 3 7 6 4 5 5 3 3 3 3 3 2 2 3 3 5 6 6 9 12 12 11 10 11 14 21 26 28 29 30 31 33 35 35 35 37 36 36 36 32 29 31 31 30 30 26 23 25 26 24 22 21 20 20 20 18 17 17 16 15 14 13 12 12 11 11 10 10 9 9 6 6 10 9 8
2 1 2 3 3 6 5 6 10 10 5 4 7 6 4 2 2 3 2 2 3 3 2 2 2 5 6 5 9 13 13 13 14 15 14 16 23 27 29 31 32 33 34 36 36 35 37 39 36 33 28 26 29 30 29 29 25 23 27 27 23 22 21 21 20 19 18 17 17 16 15 14 13 13 12 12 11 10 10 9 8 5 8 10 9 8
0 1 1 1 1 6 6 4 6 9 7 6 6 5 5 4 4 4 5 1 2 3 3 4 2 6 7 4 8 12 10 11 15 17 14 17 25 27 29 32 33 34 35 36 36 35 37 39 35 32 30 29 31 31 29 29 25 24 28 27 23 21 20 20 19 18 18 17 16 15 14 14 13 13 13 13 12 11 10 9 6 6 10 10 9 8
3 1 1 2 3 6 6 2 8 10 7 6 4 4 5 4 5 6 6 3 2 1 1 3 1 6 6 3 5 6 6 9 13 11 7 12 21 24 26 30 32 32 34 36 37 35 36 38 34 34 35 35 35 35 33 31 26 25 29 27 22 20 19 19 19 18 18 17 16 15 14 14 13 14 14 13 12 11 10 9 6 9 11 10 9 8
4 1 0 3 3 2 4 3 5 8 8 4 4 4 5 6 6 6 5 4 4 3 2 1 2 6 6 4 4 3 5 8 10 8 6 11 18 22 26 29 30 31 31 34 37 36 35 36 34 35 37 37 36 35 35 31 25 25 29 25 21 20 20 20 20 19 18 17 16 15 14 14 14 14 14 14 13 12 10 9 8 11 11 10 8 8
5 1 1 1 3 2 3 3 3 3 5 5 5 7 7 7 6 4 2 4 4 5 6 5 4 7 6 5 2 3 6 6 7 10 11 14 19 23 26 28 29 31 31 33 37 38 37 36 34 34 35 35 33 32 32 28 23 26 29 24 21 22 23 23 21 19 18 16 16 15 14 14 14 15 15 15 14 12 10 9 11 12 11 9 8 8
6 2 3 3 2 4 5 4 3 4 4 4 5 9 9 8 8 5 3 4 4 4 5 6 5 8 7 4 3 3 6 6 7 11 14 16 21 25 26 28 29 31 32 34 37 39 39 39 37 36 37 37 37 37 35 30 26 28 28 24 23 25 25 23 20 19 17 16 15 14 14 14 15 15 15 15 13 12 11 12 13 13 11 9 8 7
4 1 4 5 5 5 6 6 4 4 4 3 6 8 8 8 8 6 4 5 5 3 3 6 7 8 11 6 2 4 6 7 7 10 14 19 23 26 27 28 29 30 33 35 37 38 38 39 38 39 39 38 38 37 33 31 30 31 30 27 26 27 25 22 21 19 17 16 14 14 13 13 14 15 15 14 13 12 13 14 14 12 10 9 8 7
3 1 4 5 7 9 8 6 4 7 9 7 7 8 8 8 10 7 6 6 6 6 4 8 6 7 11 9 7 8 7 8 7 10 15 21 25 26 27 28 28 29 30 33 36 37 38 39 39 40 38 37 37 33 29 31 32 30 29 28 28 28 25 22 21 19 17 16 14 13 13 13 13 14 14 13 13 14 15 15 14 12 10 9 8 7
3 2 4 3 6 10 7 7 5 6 10 8 9 10 9 9 11 10 8 7 8 8 7 7 8 9 10 10 10 10 8 6 6 11 17 23 25 26 27 28 29 30 32 34 37 38 39 39 39 38 36 36 36 32 30 33 33 29 28 28 27 28 26 23 22 20 17 16 14 13 12 13 13 14 14 14 15 16 16 15 14 12 10 9 9 9
2 3 3 1 5 8 3 5 6 6 8 8 10 12 12 11 12 11 8 6 8 7 6 5 8 10 10 8 8 7 6 5 7 14 19 24 27 28 28 29 30 32 34 36 38 39 40 40 38 36 36 37 37 34 32 34 35 32 30 29 29 29 28 26 24 20 17 16 14 13 13 13 14 14 15 16 17 17 17 16 14 12 11 11 11 11
2 3 1 2 3 7 3 1 3 7 9 8 8 9 11 12 11 7 4 3 4 3 2 3 5 8 8 4 4 6 11 11 12 17 21 26 29 30 29 30 31 33 35 36 38 39 39 38 37 37 38 39 39 36 34 34 35 34 33 32 32 32 30 27 23 19 17 16 15 15 14 14 15 15 16 17 18 18 17 15 14 12 12 12 12 12
2 2 1 3 1 6 4 5 3 3 7 8 6 7 9 9 8 5 4 5 7 5 3 5 3 7 7 3 3 8 12 12 11 15 20 25 30 32 31 31 32 34 36 37 37 38 38 38 38 38 40 40 39 38 36 35 34 35 37 37 34 32 30 27 23 20 19 18 17 16 15 15 16 16 17 18 18 18 17 16 15 13 13 12 12 13
4 2 1 2 1 6 4 5 4 5 6 3 6 9 10 7 4 4 2 4 7 7 7 6 6 7 5 4 5 6 8 9 12 20 25 26 30 33 33 34 35 37 38 38 39 39 39 40 39 39 40 40 39 38 36 35 33 33 35 35 32 31 30 27 24 21 20 19 18 17 17 16 16 17 18 18 18 18 17 17 15 14 13 12 12 13
3 3 1 1 1 5 5 5 5 5 5 6 6 6 9 7 7 8 5 7 8 5 4 4 5 5 5 8 9 9 10 12 18 26 31 32 34 34 34 35 36 36 37 37 39 40 39 40 39 38 38 39 39 36 34 34 32 31 32 32 31 32 32 29 26 23 22 20 19 18 18 17 17 18 18 18 19 19 18 17 16 14 13 12 12 13
4 3 1 1 1 3 4 6 4 3 6 7 4 1 3 4 7 9 5 5 9 8 5 5 6 6 5 6 6 7 8 9 12 20 27 32 36 37 37 36 36 36 37 37 38 39 38 38 39 39 38 38 38 36 34 34 34 34 33 32 31 33 33 31 28 25 23 21 20 19 19 18 18 19 18 18 19 19 18 17 16 14 13 12 12 12
6 3 1 1 0 2 3 4 3 5 6 4 3 2 1 3 4 5 1 4 8 9 7 7 6 5 3 3 3 6 7 6 7 14 24 29 32 35 37 38 39 39 39 40 40 40 40 40 40 40 40 39 38 37 35 34 35 36 35 32 30 32 33 32 29 26 24 22 20 20 19 19 19 20 20 19 20 20 19 17 16 14 12 12 12 13
6 4 1 1 0 1 2 0 2 2 3 2 1 0 3 3 4 6 3 6 8 7 8 6 3 5 5 3 7 13 13 10 6 8 21 28 31 34 35 36 38 38 37 38 39 38 38 39 39 39 38 38 37 37 36 35 35 36 35 32 31 31 32 32 30 26 24 22 21 20 20 20 20 21 21 21 21 21 20 17 15 14 12 11 12 13
3 3 3 3 1 2 3 1 2 3 1 4 5 4 2 3 5 6 4 5 7 7 10 8 3 7 6 4 10 16 14 7 2 7 21 30 32 33 34 33 34 34 34 35 36 36 36 36 36 37 37 37 37 37 36 35 35 36 35 32 31 31 31 31 30 27 25 23 20 20 20 20 20 21 21 21 22 21 19 17 15 13 12 10 11 12
4 2 3 3 0 1 3 2 1 2 2 5 7 7 6 4 5 6 4 5 7 6 11 10 5 7 8 9 13 13 9 3 3 9 20 30 33 33 34 33 32 32 32 32 32 33 35 35 35 35 36 36 37 36 36 36 35 35 34 32 31 31 30 30 29 28 25 22 20 19 20 19 20 21 21 22 22 21 18 17 15 13 12 11 11 12
4 3 2 2 1 1 2 1 1 3 2 3 6 7 7 2 5 7 3 7 7 5 10 11 9 10 13 14 13 8 5 6 7 9 14 23 29 31 32 32 32 32 32 32 31 32 33 34 35 36 36 36 36 35 35 35 35 35 34 32 33 33 30 28 28 27 25 21 19 19 19 19 20 21 21 21 22 20 18 17 15 14 13 12 12 13
3 3 1 3 3 2 2 1 2 4 4 4 6 7 4 3 6 5 5 7 4 2 6 9 10 14 19 20 15 9 8 8 6 6 7 14 22 28 30 31 31 30 30 30 30 30 32 34 34 35 35 35 35 35 34 34 35 35 34 33 34 34 31 28 27 25 23 21 19 18 18 19 20 21 20 20 20 20 19 18 16 15 13 12 13 14
0 1 0 2 3 2 2 1 1 4 4 4 5 5 1 3 2 3 5 3 4 2 2 4 8 15 22 25 23 16 9 6 4 4 2 7 17 24 28 30 30 30 30 29 29 30 31 33 34 34 34 34 34 34 33 34 35 35 35 34 33 32 31 29 26 25 23 21 19 18 18 19 20 21 21 20 20 21 20 19 17 15 14 13 14 15
4 2 1 2 2 2 2 3 2 2 3 3 4 3 2 2 3 4 4 4 3 3 2 1 5 11 17 23 26 20 11 6 5 4 2 3 12 20 25 28 29 30 30 30 31 31 31 32 33 34 34 34 34 33 33 33 34 35 35 32 29 30 31 28 25 25 23 21 19 19 19 20 21 21 21 21 21 21 21 20 19 17 15 14 15 17
4 4 3 3 3 3 2 1 2 5 3 4 3 1 1 1 2 3 5 3 4 6 6 4 1 7 11 14 18 20 17 12 9 7 4 4 9 17 23 26 28 30 31 31 31 30 30 31 32 33 34 34 34 33 32 32 33 35 33 28 26 29 29 26 25 26 24 21 20 20 20 20 21 22 22 22 22 22 21 20 19 19 18 16 16 18
4 4 4 3 3 3 4 5 5 4 4 5 2 2 3 3 2 2 1 2 7 10 9 9 7 0 6 9 12 14 16 15 13 11 9 7 8 13 19 23 27 29 30 30 30 30 30 30 30 32 33 34 34 33 32 31 32 32 31 29 29 28 25 24 26 26 23 21 20 20 20 21 22 22 22 22 23 23 22 22 21 20 20 18 18 20
4 3 2 2 2 1 2 5 6 6 5 3 1 5 8 7 6 6 6 7 10 12 13 13 12 8 4 2 7 8 10 12 12 12 11 10 9 11 15 19 24 27 29 30 31 31 30 30 30 31 33 33 33 33 32 31 30 28 27 28 30 28 24 23 25 25 23 21 20 20 20 21 22 23 23 23 23 23 22 22 22 21 21 20 20 21
2 1 2 2 2 1 1 4 4 4 4 3 3 8 11 10 9 9 9 10 11 12 13 13 13 12 11 8 4 4 4 5 7 9 12 12 11 12 14 17 21 25 29 31 31 31 31 31 31 32 32 33 33 32 31 30 28 28 26 26 28 28 26 23 23 23 22 21 21 21 21 21 22 24 24 24 24 24 23 22 22 22 22 21 22 22
1 2 1 2 3 1 4 6 5 3 4 3 3 8 11 11 9 9 9 9 9 10 11 11 12 12 11 11 10 10 8 6 5 5 8 11 12 13 14 16 20 23 27 30 31 31 31 31 31 31 31 31 31 30 30 29 29 30 29 27 27 28 27 26 24 23 22 21 21 21 21 21 22 23 24 25 26 25 25 24 24 23 21 20 21 23
1 2 1 2 3 1 3 5 3 3 3 2 3 7 10 10 9 8 8 7 7 8 8 8 9 10 10 10 11 11 10 9 7 5 4 6 9 12 14 16 18 21 25 28 30 30 29 28 28 29 29 29 28 29 29 29 29 29 28 27 27 27 26 26 25 23 22 21 21 21 21 22 23 23 24 25 26 26 25 24 23 21 19 19 21 22
1 1 1 4 3 1 3 4 4 3 0 2 3 7 8 9 9 8 9 9 8 8 7 6 7 7 8 9 10 10 10 9 9 7 6 4 5 8 12 15 17 20 23 26 27 28 27 27 27 27 27 27 27 27 28 28 29 27 25 26 27 26 25 26 26 25 23 21 21 21 22 22 23 24 24 25 27 27 26 24 22 20 18 19 20 21
1 3 3 4 5 5 5 5 5 2 2 4 5 7 8 9 8 9 10 10 10 10 8 7 7 6 6 6 8 8 8 9 9 9 8 6 4 5 8 12 15 18 21 24 25 27 28 28 27 26 25 25 26 26 26 27 28 27 25 25 25 25 25 26 26 25 23 22 22 22 22 22 23 24 25 26 27 27 26 26 24 22 20 19 18 18
Wind_Direction
161 147 187 200 203 199 198 191 181 44 84 142 129 137 157 157 209 212 213 221 157 154 208 183 167 173 175 177 174 175 179 183 185 186 193 198 199 201 202 204 209 211 213 216 218 219 220 218 216 215 217 216 215 216 214 210 208 205 202 203 203 203 203 199 196 198 205 210 208 208 218 227 231 238 244 243 241 244 245 245 250 256 260 262 265 267
158 187 217 210 202 186 177 163 192 314 60 96 133 154 181 173 202 221 204 237 174 171 254 162 140 172 184 180 178 169 171 187 190 189 196 201 202 203 203 205 210 212 215 218 218 218 219 219 217 217 218 218 216 216 215 213 209 205 204 206 208 206 201 197 197 204 210 213 215 224 234 235 235 238 243 246 248 249 248 253 260 265 269 272 276 282
177 221 217 195 135 127 139 144 192 233 76 67 100 131 170 203 220 247 230 15 56 185 235 155 131 164 180 173 180 179 184 196 196 196 199 201 206 209 207 207 209 211 212 213 211 210 214 218 218 218 219 218 217 216 216 212 208 206 206 208 210 206 202 197 195 206 214 217 224 233 240 241 238 236 238 244 249 249 244 249 255 261 268 273 279 285
195 233 193 143 122 128 142 157 173 226 217 96 80 118 181 221 175 211 240 27 39 125 158 130 118 135 141 139 206 208 204 197 196 202 205 207 212 215 213 212 211 211 209 206 206 205 207 213 215 215 216 216 215 214 213 208 205 207 209 210 207 202 204 201 198 211 219 223 228 231 236 238 234 234 239 243 245 246 244 247 252 260 268 272 275 278
235 264 155 140 152 150 149 163 163 194 226 166 124 155 199 191 175 181 161 89 44 40 110 109 90 237 163 181 214 204 203 202 192 199 211 216 219 220 219 218 216 214 211 205 202 201 204 209 211 212 212 213 212 210 209 205 206 209 211 211 206 203 209 209 209 217 220 226 231 230 229 227 226 230 239 246 247 244 243 246 253 262 269 274 278 283
262 275 155 151 170 161 150 170 172 176 202 221 197 201 202 185 180 107 113 101 64 0 256 119 120 277 198 195 209 186 196 213 196 198 214 218 219 221 220 219 217 215 212 207 202 201 205 207 207 209 211 211 210 208 206 205 207 210 211 211 208 209 214 215 219 223 224 230 234 232 230 229 229 229 233 241 244 243 245 250 258 266 274 279 283 285
233 256 172 159 168 161 164 182 182 168 166 228 221 201 206 201 194 108 125 120 122 202 242 131 161 248 233 208 206 182 192 214 204 207 218 215 216 219 219 219 216 213 211 206 202 203 206 207 206 208 210 210 207 204 203 204 208 210 211 213 212 216 219 217 224 229 228 229 230 229 232 235 236 235 236 238 240 243 247 252 264 275 280 282 283 285
181 206 229 186 166 167 186 188 183 167 157 223 210 177 191 203 213 160 114 115 183 177 215 80 147 163 247 226 195 176 190 212 216 219 220 216 216 218 219 219 216 214 211 205 202 202 206 209 210 211 210 207 202 201 203 205 209 211 212 214 214 219 221 215 220 228 226 222 221 219 221 226 230 236 241 241 244 248 251 258 268 275 278 281 284 285
165 191 208 182 177 189 187 162 156 154 155 222 193 169 182 191 193 161 105 112 164 116 194 253 178 151 258 256 172 173 194 210 218 220 220 216 214 214 217 218 216 214 212 208 203 201 205 210 213 214 211 205 201 203 206 208 210 212 214 216 216 220 222 215 212 218 218 215 216 214 214 216 221 228 234 240 249 253 257 263 267 272 281 288 290 288
167 194 195 160 181 204 158 139 146 148 165 198 162 149 160 170 167 143 127 139 91 123 221 223 188 180 265 266 168 177 198 212 218 222 221 215 212 213 214 214 213 212 212 211 205 200 205 210 213 216 212 206 203 205 208 210 213 216 217 217 217 221 225 219 207 207 213 211 208 209 212 215 220 227 232 239 246 252 259 263 268 282 295 302 304 301
255 202 198 173 174 180 146 145 154 155 154 131 124 113 86 70 64 61 58 100 111 259 237 202 183 189 250 259 188 183 194 205 212 219 215 209 209 211 212 210 210 209 209 210 206 201 203 208 214 217 213 210 208 207 209 212 215 218 218 216 216 220 225 219 204 200 208 208 204 206 211 217 225 231 237 242 249 256 263 270 282 297 307 315 319 314
273 237 219 194 164 155 129 149 168 166 155 128 124 127 105 51 25 32 6 48 158 240 250 197 165 169 226 248 211 204 208 206 207 210 203 200 205 207 207 206 206 206 206 207 204 200 198 203 211 214 212 214 213 209 209 212 216 219 217 214 212 214 219 220 212 206 206 204 202 204 208 218 228 235 240 248 256 264 272 281 292 300 308 321 325 313
249 248 269 254 174 167 146 146 172 173 170 158 133 135 142 156 113 182 237 218 205 242 271 185 147 153 236 236 209 209 218 217 214 214 205 199 201 202 202 202 202 203 204 204 202 199 195 195 203 207 206 210 214 212 212 214 217 219 216 211 209 211 214 215 213 210 205 202 204 206 210 217 225 235 245 255 262 269 277 285 292 299 311 324 319 295
231 280 257 229 189 180 167 156 174 180 182 185 166 154 165 160 166 199 212 227 234 253 306 182 157 181 263 254 210 202 216 221 219 220 212 204 203 201 199 199 199 201 202 202 201 199 195 191 198 204 204 206 211 212 214 217 220 220 215 208 208 211 210 207 207 207 202 202 207 210 214 218 225 237 247 253 260 268 277 284 291 300 315 323 304 261
191 250 223 200 199 182 178 177 164 152 170 187 160 132 159 163 172 195 198 200 224 242 338 335 189 187 195 239 216 205 230 233 226 227 215 205 203 197 195 196 197 200 200 201 201 200 199 195 194 199 203 207 210 211 213 217 221 221 213 207 208 208 206 204 204 206 205 205 208 212 216 221 229 237 240 246 257 266 274 285 292 303 318 314 276 227
182 236 246 207 196 174 175 176 135 130 164 196 118 118 188 187 149 135 184 186 168 139 71 241 221 212 203 251 262 231 251 234 211 205 194 190 189 186 190 194 196 198 197 198 199 200 201 199 193 193 197 200 203 208 212 215 220 220 212 204 205 207 208 206 204 206 208 208 210 214 218 224 228 233 241 250 261 266 275 285 290 302 313 292 239 206
171 247 281 185 194 192 172 167 162 159 163 169 160 175 197 152 116 105 210 230 98 151 223 232 241 295 300 281 318 10 191 191 182 183 181 178 176 179 187 191 194 195 194 196 197 196 198 199 196 191 191 195 200 207 212 215 219 221 212 201 201 207 210 208 205 206 208 209 212 216 218 221 227 237 249 257 264 269 276 282 288 304 306 252 209 192
155 239 280 171 189 223 179 168 185 184 155 148 192 189 127 91 95 104 182 0 64 171 257 263 215 266 211 236 327 38 150 179 183 180 176 171 172 179 187 189 190 192 192 194 196 197 196 196 197 198 198 203 210 214 213 213 217 221 213 202 205 211 211 208 206 205 208 211 214 217 217 223 232 242 250 256 262 267 272 277 289 305 289 215 196 184
157 200 283 194 186 210 172 167 190 208 183 164 177 167 127 168 214 130 156 186 119 168 277 307 265 243 195 213 268 217 189 190 188 179 170 174 180 184 185 186 187 188 191 192 193 196 196 193 194 199 203 208 213 214 212 210 215 219 210 203 210 214 209 209 209 208 211 213 214 219 222 229 238 242 247 252 255 259 264 273 289 297 250 200 189 179
109 143 275 227 190 159 138 177 188 200 225 104 144 159 157 180 200 190 163 168 160 165 231 287 310 267 229 217 208 212 206 187 176 180 187 191 190 187 183 182 183 184 188 191 190 192 194 192 189 191 198 205 207 208 207 207 212 214 204 202 211 213 206 209 212 211 213 213 215 221 225 231 237 239 244 246 248 252 255 266 285 282 216 195 187 177
5 136 227 273 214 155 174 209 193 182 168 136 155 173 181 155 148 190 189 127 142 155 169 194 273 261 244 213 199 213 212 188 179 186 197 197 190 187 185 181 181 184 186 188 189 189 189 191 192 194 199 205 205 203 203 204 207 208 201 202 213 213 206 209 211 212 215 215 218 224 228 234 235 235 238 238 240 244 247 260 277 242 195 190 185 176
255 185 188 283 204 180 202 204 170 171 160 150 165 177 177 145 107 169 213 226 126 148 163 160 225 266 257 215 208 217 205 191 193 193 195 192 187 185 183 181 181 184 186 186 186 186 185 187 192 196 200 203 202 200 201 202 205 204 198 200 212 213 205 207 210 213 216 218 222 228 231 234 233 232 234 232 233 237 244 259 258 199 186 187 183 175
183 137 132 260 221 211 240 196 146 158 145 140 181 180 158 143 132 168 203 217 180 182 155 129 190 272 269 256 247 239 198 194 208 208 191 181 183 180 177 179 181 183 186 186 184 182 181 184 188 192 196 200 200 200 200 199 201 202 197 199 211 209 201 205 211 215 218 220 226 230 231 232 231 231 230 227 229 234 243 253 228 185 184 186 181 174
184 172 302 295 299 282 308 2 124 141 128 133 203 176 156 178 177 168 172 171 186 208 182 129 271 270 279 289 269 218 167 179 199 203 172 159 171 175 174 176 178 181 184 186 186 183 179 180 183 186 191 195 196 197 194 191 196 202 197 200 209 205 202 207 211 215 219 223 227 229 230 231 229 229 226 224 229 233 239 235 202 183 183 183 181 177
186 214 117 10 356 48 64 54 85 158 160 171 203 192 186 185 156 132 128 146 194 210 168 157 242 258 275 319 339 134 141 154 169 175 172 163 164 170 172 173 175 180 181 180 183 185 184 186 188 191 194 196 198 197 193 194 205 204 197 200 206 204 206 208 210 216 220 223 227 228 230 232 230 228 225 224 228 229 226 211 191 184 182 180 183 183
178 203 140 134 123 148 165 170 176 191 182 181 194 194 199 188 161 149 138 154 216 228 162 162 219 258 282 336 25 131 142 146 156 161 168 171 168 169 171 172 174 178 180 179 179 181 184 188 192 196 200 203 205 203 202 207 211 204 201 205 208 206 207 208 210 216 220 223 229 231 234 235 231 226 222 221 222 218 207 195 188 185 180 179 185 189
144 203 179 173 181 188 199 207 186 140 146 191 190 182 191 185 166 143 129 171 197 166 176 209 208 243 270 281 250 213 175 164 168 161 162 167 169 170 171 172 175 178 179 179 178 179 181 185 189 194 199 203 202 200 204 209 205 201 203 205 206 207 208 209 212 216 220 225 231 234 235 233 227 221 216 215 213 206 196 189 186 184 182 182 186 190
88 291 213 196 219 225 215 215 203 158 165 187 180 176 185 172 158 155 173 198 170 137 224 248 193 207 253 252 228 222 200 181 182 176 169 165 166 169 168 169 173 176 178 177 176 178 181 184 187 191 196 201 199 199 207 206 199 201 206 205 206 207 206 211 215 218 224 229 232 234 230 223 217 212 209 208 203 196 191 187 186 185 186 188 188 188
104 272 231 194 251 255 222 211 232 183 170 177 174 179 185 170 165 176 196 200 164 160 225 234 177 192 237 246 229 216 203 193 176 168 166 161 161 164 164 167 173 176 177 177 179 181 184 186 189 192 197 202 201 201 205 201 197 202 208 209 211 209 208 213 218 221 226 229 230 229 220 212 207 205 206 203 196 190 188 188 188 187 189 193 193 189
141 255 243 193 280 284 236 200 227 190 162 170 183 184 181 178 182 187 197 196 174 188 233 207 187 213 232 235 231 213 191 167 138 145 152 156 160 164 166 170 176 179 180 181 183 186 188 190 194 199 201 203 202 201 202 202 201 204 206 208 211 211 211 214 216 220 227 229 228 222 213 208 205 205 205 200 193 190 189 189 190 191 193 196 195 191
177 233 243 73 309 297 335 50 221 190 166 167 186 190 178 177 185 185 177 167 170 218 263 147 188 240 252 238 207 166 153 149 148 153 159 163 166 167 169 174 178 180 183 185 187 189 191 193 197 201 201 202 203 203 204 205 205 206 208 209 210 212 213 213 214 219 226 228 225 218 211 207 205 205 203 197 192 191 191 192 193 195 196 195 192 190
159 230 316 58 342 283 323 28 27 162 145 147 173 188 175 172 180 179 170 175 179 179 125 109 181 246 257 232 153 151 155 155 157 163 164 168 170 170 172 177 181 184 186 188 190 190 192 194 198 202 203 203 205 205 204 204 207 213 214 210 208 211 212 213 214 217 221 223 220 215 210 207 207 205 200 196 193 193 193 194 196 196 194 192 191 191
150 184 289 89 204 272 306 16 38 91 111 155 207 190 179 177 167 156 183 214 191 158 134 151 214 240 227 167 151 168 175 168 175 178 173 170 171 174 179 182 184 187 189 190 192 193 195 198 200 204 206 206 207 207 207 208 212 217 216 212 212 214 213 214 214 215 218 218 217 214 209 208 210 206 200 196 195 194 195 197 198 196 193 191 191 191
131 133 208 139 184 270 308 6 49 103 149 228 241 185 174 176 162 161 188 215 204 187 170 200 237 241 196 176 175 183 188 189 193 190 181 175 176 180 185 187 188 190 191 192 195 197 199 200 201 205 208 209 209 209 212 214 215 215 214 213 217 218 215 215 214 213 216 217 216 213 210 210 212 208 202 199 198 197 198 199 199 196 193 194 193 191
135 124 192 58 60 273 328 37 85 170 219 245 284 277 188 174 162 164 183 215 212 220 247 259 251 230 213 213 196 182 191 198 196 189 184 183 185 185 186 189 190 191 192 194 196 198 199 200 202 205 209 211 212 213 215 216 214 213 212 213 219 220 216 215 215 212 212 215 214 212 211 212 213 210 206 202 202 202 201 200 201 198 196 193 191 191
142 134 146 97 71 281 12 62 147 225 257 282 333 330 151 110 125 140 139 270 234 211 210 232 235 203 208 256 185 147 157 155 158 182 189 191 193 191 191 193 194 195 197 199 200 201 202 204 207 209 210 212 213 214 215 214 214 214 213 214 219 219 217 217 217 213 210 212 214 213 214 215 214 211 209 206 204 203 202 202 202 201 198 192 188 190
128 137 169 219 253 125 112 178 250 297 324 331 350 242 165 156 162 154 172 260 249 207 196 221 219 150 157 189 142 132 132 124 114 190 199 199 200 200 200 200 200 201 204 204 204 205 206 208 209 210 211 212 212 214 214 214 214 214 214 215 218 220 218 218 219 217 214 215 216 217 217 217 216 213 209 207 205 203 202 204 205 201 198 195 193 192
119 171 188 191 226 101 104 13 349 35 324 247 254 265 247 217 199 163 162 252 262 218 203 216 199 152 152 154 142 133 124 108 49 230 207 203 205 204 203 204 204 205 206 205 204 206 206 207 208 210 211 212 212 213 214 215 215 215 214 216 220 222 222 221 222 221 219 218 219 220 218 218 218 215 211 208 205 203 203 205 206 203 197 196 198 195
42 66 121 128 12 46 98 97 128 156 216 240 245 270 296 262 196 150 148 257 271 230 204 204 189 165 163 162 155 142 121 119 254 239 212 205 206 206 205 205 205 207 209 209 209 209 208 208 209 210 212 212 212 213 213 214 215 216 217 219 223 225 225 225 225 224 222 222 221 220 218 218 219 217 213 210 207 205 206 206 205 204 198 195 196 195
1 17 66 116 121 105 111 109 219 222 244 243 244 276 307 310 132 117 159 249 265 235 204 200 192 180 172 164 159 153 152 181 226 251 224 207 207 208 209 209 208 208 210 210 212 211 210 209 209 209 211 212 213 214 215 214 215 218 220 223 224 226 226 226 225 223 223 223 221 218 218 219 219 217 215 212 208 207 208 209 207 206 203 198 194 193
342 13 72 153 141 134 135 102 294 262 252 250 261 282 311 61 88 110 199 237 271 258 213 213 207 189 173 168 172 189 197 196 231 269 237 208 207 209 210 211 212 212 212 212 212 212 211 211 212 213 214 215 215 215 215 215 216 218 222 224 225 227 229 227 223 222 223 222 219 218 218 218 218 217 216 214 210 208 209 210 211 210 209 205 197 193
298 16 32 140 122 121 153 122 332 280 254 258 279 290 342 107 129 217 231 268 339 338 253 234 213 191 179 181 189 196 197 202 243 294 289 213 212 209 208 209 210 211 213 214 214 213 212 212 213 215 215 215 216 215 214 215 217 219 222 224 227 230 230 226 223 223 223 221 217 217 217 216 216 216 214 212 210 210 209 210 213 215 214 211 204 197
170 169 237 207 161 123 76 62 46 232 238 296 312 320 60 131 211 256 293 328 4 18 11 347 195 188 189 197 202 205 206 219 248 285 331 219 214 210 209 209 211 211 212 212 213 214 213 212 213 213 215 215 216 215 215 216 217 219 222 225 229 231 228 223 222 224 222 219 217 217 216 215 214 214 214 212 210 210 211 211 213 216 216 214 209 202
175 175 207 230 190 134 119 143 198 211 240 321 323 193 159 250 250 303 318 325 44 51 44 37 163 198 202 209 214 217 223 232 247 265 270 235 218 214 212 212 212 213 213 213 214 214 215 214 213 213 214 215 215 214 215 216 218 220 222 223 226 228 226 221 222 223 219 216 216 215 214 215 215 216 215 212 210 210 212 214 215 216 216 216 212 207
218 200 184 196 193 169 181 214 251 284 315 328 314 144 102 66 86 84 23 63 67 62 61 54 42 285 220 228 231 229 231 234 239 247 252 248 234 223 218 218 217 216 215 214 214 215 216 216 215 214 213 214 214 214 214 216 218 221 223 222 222 223 221 220 222 221 216 213 214 214 214 215 216 217 216 213 212 212 212 214 216 216 217 217 213 210
239 202 155 159 201 230 233 242 277 320 347 352 40 99 91 82 82 85 86 89 82 73 69 64 60 59 59 266 257 258 255 250 245 242 241 242 239 229 223 222 221 219 217 215 213 213 214 214 215 215 214 212 213 214 214 216 219 221 224 226 225 222 217 220 224 220 212 212 214 215 215 215 216 216 215 213 214 215 216 217 216 216 217 218 215 212
271 167 116 98 105 106 233 253 284 325 336 346 54 90 93 84 77 80 85 85 81 77 71 67 66 65 61 56 36 0 326 294 275 254 241 238 237 233 228 226 224 221 219 217 215 212 211 212 212 213 213 211 211 212 214 216 219 220 222 227 228 222 215 218 223 219 212 213 216 216 216 217 216 214 212 212 214 216 218 219 219 219 219 219 216 212
314 5 36 119 108 134 232 257 285 324 323 328 70 92 92 85 77 75 79 76 75 78 75 66 61 58 55 54 50 42 33 17 351 299 259 247 241 236 232 230 227 223 219 216 214 211 210 210 211 212 214 213 214 215 215 216 218 219 220 224 228 222 216 217 222 219 215 215 218 218 218 218 217 215 213 213 214 215 216 217 218 220 220 219 217 214
339 336 229 128 77 40 249 255 283 4 354 343 89 94 95 95 89 82 80 78 78 79 75 69 63 55 51 51 47 40 34 27 20 8 327 275 254 246 240 234 230 227 221 217 215 212 211 212 215 216 217 217 217 217 216 215 217 218 220 224 227 224 220 222 223 219 216 217 219 220 219 218 218 217 216 216 216 217 218 218 219 219 219 217 216 218
23 268 161 103 101 188 235 216 170 123 234 215 133 112 113 110 104 102 98 92 89 84 79 81 76 61 55 54 46 40 37 29 19 13 4 335 286 263 250 239 230 225 220 216 213 212 213 215 217 217 217 217 218 217 216 215 215 215 218 224 227 224 222 225 223 218 216 218 221 222 220 218 217 218 219 219 218 217 217 218 221 223 222 220 219 221
164 197 173 140 167 226 254 222 183 129 115 153 137 128 132 124 110 107 101 91 89 86 83 91 90 74 69 62 47 38 36 31 22 14 6 354 323 277 253 242 233 225 220 215 211 210 211 212 214 215 215 216 217 216 217 217 216 213 214 219 224 224 224 226 225 221 220 222 224 224 221 219 218 218 218 219 219 217 215 214 216 219 222 222 221 219
Height
1467 1472 1472 1465 1460 1459 1461 1463 1466 1467 1466 1467 1473 1476 1477 1477 1479 1477 1473 1473 1474 1478 1483 1483 1485 1491 1493 1491 1492 1494 1497 1499 1500 1501 1502 1502 1503 1504 1504 1504 1504 1505 1506 1507 1508 1510 1512 1513 1514 1515 1516 1517 1519 1521 1524 1526 1529 1531 1534 1535 1537 1538 1539 1541 1543 1546 1548 1549 1550 1551 1552 1552 1553 1554 1554 1555 1555 1556 1557 1558 1558 1559 1560 1560 1561 1561
1467 1470 1463 1456 1456 1460 1465 1468 1467 1469 1469 1468 1471 1474 1476 1476 1475 1474 1473 1474 1473 1475 1483 1485 1487 1493 1492 1490 1492 1493 1495 1497 1497 1498 1499 1500 1501 1502 1503 1503 1503 1504 1505 1506 1507 1509 1510 1511 1513 1514 1515 1517 1518 1520 1523 1526 1529 1532 1533 1535 1537 1538 1539 1541 1544 1547 1547 1548 1550 1551 1551 1552 1552 1553 1554 1554 1555 1556 1557 1557 1558 1558 1559 1560 1560 1561
1468 1462 1455 1457 1461 1463 1466 1468 1468 1470 1472 1473 1473 1474 1477 1476 1474 1474 1473 1474 1474 1474 1482 1488 1490 1495 1493 1491 1493 1493 1493 1494 1495 1496 1497 1498 1500 1501 1501 1501 1502 1502 1503 1504 1506 1507 1509 1510 1512 1513 1515 1516 1518 1520 1523 1526 1529 1531 1533 1534 1536 1538 1539 1542 1545 1547 1547 1548 1550 1550 1551 1552 1552 1553 1553 1554 1555 1556 1557 1557 1558 1558 1559 1559 1560 1561
1465 1458 1455 1460 1462 1462 1466 1468 1469 1472 1474 1475 1476 1476 1477 1477 1476 1475 1474 1476 1476 1475 1481 1488 1492 1496 1494 1494 1494 1493 1494 1494 1495 1496 1497 1498 1499 1499 1500 1500 1501 1501 1502 1503 1504 1506 1508 1509 1511 1512 1514 1516 1518 1520 1523 1526 1528 1530 1532 1534 1535 1537 1538 1542 1546 1547 1547 1548 1549 1550 1551 1551 1552 1553 1553 1554 1555 1556 1556 1557 1557 1558 1559 1559 1560 1561
1459 1454 1454 1458 1460 1462 1466 1468 1469 1473 1476 1476 1477 1477 1475 1475 1474 1474 1475 1477 1479 1481 1481 1485 1496 1500 1496 1496 1495 1493 1494 1494 1494 1495 1496 1497 1498 1498 1499 1500 1500 1501 1502 1503 1503 1505 1507 1508 1510 1512 1513 1515 1517 1520 1523 1526 1528 1529 1531 1533 1535 1537 1538 1543 1546 1546 1546 1547 1548 1549 1550 1551 1552 1552 1553 1554 1555 1556 1556 1557 1557 1558 1559 1559 1560 1560
1457 1454 1453 1455 1458 1461 1464 1467 1468 1470 1476 1478 1476 1474 1472 1473 1473 1474 1477 1476 1480 1487 1483 1481 1494 1500 1496 1495 1494 1492 1493 1493 1493 1494 1494 1495 1496 1497 1498 1498 1499 1500 1501 1502 1504 1506 1507 1508 1509 1511 1513 1514 1517 1520 1523 1525 1527 1529 1531 1532 1534 1536 1539 1543 1545 1545 1546 1547 1547 1548 1549 1549 1551 1552 1552 1553 1554 1555 1556 1556 1557 1558 1558 1559 1560 1560
1456 1454 1453 1454 1456 1459 1463 1466 1465 1467 1476 1480 1474 1470 1471 1472 1473 1475 1477 1476 1481 1486 1482 1480 1486 1493 1496 1495 1491 1491 1492 1492 1492 1492 1492 1493 1494 1495 1495 1496 1497 1498 1500 1502 1504 1506 1507 1508 1509 1509 1511 1514 1517 1520 1522 1524 1526 1528 1530 1532 1534 1536 1539 1543 1544 1544 1546 1547 1547 1548 1548 1549 1550 1551 1552 1553 1554 1555 1556 1556 1557 1558 1558 1559 1559 1559
1452 1454 1455 1454 1455 1458 1460 1462 1462 1463 1472 1476 1469 1468 1471 1472 1473 1476 1477 1478 1482 1484 1484 1484 1483 1486 1492 1490 1485 1489 1492 1492 1492 1491 1490 1490 1491 1492 1493 1494 1495 1497 1499 1500 1502 1504 1505 1506 1507 1508 1511 1514 1517 1519 1521 1523 1526 1528 1530 1532 1534 1535 1538 1542 1543 1544 1545 1546 1547 1547 1548 1549 1550 1551 1552 1553 1554 1555 1555 1556 1557 1558 1558 1559 1559 1558
1449 1452 1455 1455 1457 1458 1457 1458 1460 1462 1467 1469 1466 1467 1469 1471 1473 1475 1478 1479 1482 1485 1487 1486 1484 1485 1488 1485 1483 1487 1491 1492 1490 1487 1485 1485 1487 1489 1490 1492 1494 1496 1497 1499 1501 1503 1504 1505 1506 1508 1511 1514 1516 1518 1520 1523 1525 1527 1529 1531 1533 1534 1537 1540 1541 1543 1544 1545 1546 1546 1547 1548 1550 1551 1552 1553 1554 1554 1555 1556 1557 1558 1558 1558 1558 1557
1448 1450 1452 1454 1457 1457 1455 1455 1458 1460 1463 1463 1464 1467 1468 1471 1473 1474 1479 1480 1482 1486 1484 1481 1483 1483 1485 1487 1485 1486 1490 1489 1484 1480 1479 1481 1484 1486 1487 1489 1491 1494 1496 1498 1500 1502 1503 1504 1505 1508 1511 1513 1515 1517 1520 1523 1525 1526 1529 1531 1532 1534 1535 1537 1540 1541 1542 1543 1545 1545 1546 1548 1549 1550 1552 1552 1553 1554 1555 1556 1557 1557 1557 1557 1556 1556
1447 1448 1450 1451 1453 1454 1454 1455 1457 1458 1460 1462 1466 1469 1471 1475 1475 1477 1480 1480 1486 1488 1478 1474 1479 1479 1482 1485 1482 1479 1479 1476 1474 1475 1476 1478 1480 1481 1483 1486 1488 1491 1494 1496 1499 1501 1503 1504 1505 1508 1511 1512 1514 1517 1519 1522 1524 1525 1528 1530 1532 1533 1534 1535 1538 1540 1541 1542 1544 1545 1546 1547 1549 1550 1551 1552 1553 1554 1555 1556 1556 1557 1557 1556 1555 1555
1448 1449 1450 1448 1449 1451 1453 1456 1456 1457 1458 1461 1463 1466 1474 1479 1479 1481 1483 1484 1491 1486 1472 1470 1476 1481 1484 1481 1476 1471 1466 1464 1466 1468 1470 1471 1473 1475 1478 1482 1485 1488 1491 1494 1497 1499 1502 1502 1504 1507 1510 1512 1514 1516 1519 1521 1523 1524 1526 1529 1531 1532 1533 1534 1536 1538 1540 1542 1543 1544 1545 1547 1548 1550 1551 1553 1554 1555 1555 1556 1556 1556 1556 1555 1555 1554
1450 1449 1449 1447 1447 1448 1451 1456 1459 1458 1458 1460 1462 1466 1476 1484 1486 1489 1487 1487 1488 1479 1474 1476 1475 1479 1481 1470 1466 1467 1462 1460 1459 1458 1460 1463 1466 1471 1474 1477 1481 1486 1488 1491 1494 1497 1500 1500 1501 1505 1508 1510 1513 1515 1518 1520 1521 1523 1525 1528 1529 1531 1532 1534 1535 1537 1539 1541 1542 1544 1545 1546 1548 1549 1551 1552 1553 1554 1555 1555 1555 1555 1555 1554 1554 1554
1454 1451 1448 1447 1447 1445 1447 1454 1459 1458 1456 1458 1460 1463 1472 1482 1489 1493 1490 1488 1484 1476 1478 1481 1473 1476 1476 1461 1455 1458 1455 1452 1451 1453 1456 1460 1464 1468 1471 1476 1480 1483 1486 1489 1492 1494 1497 1499 1499 1502 1506 1509 1512 1514 1517 1519 1520 1522 1524 1527 1528 1530 1531 1533 1534 1536 1538 1540 1542 1543 1544 1546 1548 1549 1551 1552 1553 1553 1553 1554 1554 1554 1554 1554 1554 1554
1455 1454 1446 1444 1444 1441 1443 1448 1450 1452 1454 1455 1456 1459 1465 1470 1477 1485 1485 1484 1483 1480 1481 1481 1474 1471 1467 1455 1450 1450 1449 1449 1450 1454 1457 1459 1463 1467 1471 1475 1478 1480 1484 1486 1490 1492 1495 1498 1498 1500 1504 1507 1510 1513 1516 1518 1519 1521 1523 1525 1527 1529 1530 1532 1534 1535 1537 1539 1541 1542 1544 1546 1547 1549 1550 1551 1552 1552 1552 1553 1553 1553 1553 1553 1553 1553
1452 1450 1440 1438 1440 1438 1441 1445 1445 1450 1457 1458 1456 1459 1462 1460 1462 1473 1479 1478 1477 1477 1481 1480 1471 1464 1457 1449 1448 1449 1448 1449 1450 1453 1455 1457 1460 1464 1468 1472 1474 1477 1480 1484 1487 1491 1493 1497 1498 1499 1502 1505 1508 1511 1514 1516 1518 1520 1522 1524 1526 1528 1530 1531 1533 1535 1537 1539 1540 1542 1544 1545 1546 1548 1549 1550 1551 1551 1552 1552 1552 1552 1552 1552 1552 1553
1451 1448 1438 1437 1439 1437 1439 1442 1442 1447 1454 1458 1458 1457 1455 1453 1455 1467 1478 1480 1477 1473 1476 1477 1467 1460 1457 1449 1447 1449 1447 1448 1450 1450 1452 1454 1456 1461 1464 1467 1470 1474 1477 1481 1485 1488 1492 1495 1497 1499 1501 1503 1506 1509 1512 1515 1517 1519 1522 1523 1525 1527 1529 1531 1532 1534 1536 1538 1540 1542 1543 1545 1546 1547 1548 1549 1550 1550 1551 1551 1551 1551 1551 1551 1552 1553
1446 1445 1437 1436 1439 1437 1437 1439 1441 1442 1445 1452 1455 1451 1450 1455 1458 1462 1470 1478 1481 1475 1474 1475 1467 1462 1461 1453 1448 1450 1448 1449 1450 1448 1450 1453 1455 1457 1460 1463 1467 1471 1475 1479 1483 1487 1490 1493 1495 1497 1500 1503 1505 1508 1511 1514 1516 1519 1521 1523 1525 1526 1528 1530 1532 1534 1536 1538 1540 1541 1542 1544 1545 1546 1547 1548 1549 1550 1550 1551 1550 1550 1550 1551 1552 1553
1442 1443 1438 1435 1436 1437 1436 1440 1444 1442 1440 1444 1447 1446 1450 1459 1463 1464 1468 1473 1478 1479 1474 1473 1472 1466 1460 1452 1445 1445 1447 1447 1448 1448 1450 1451 1452 1453 1456 1461 1465 1469 1473 1477 1481 1484 1487 1490 1492 1494 1498 1502 1504 1507 1510 1513 1515 1518 1520 1522 1524 1526 1528 1530 1532 1533 1536 1537 1539 1540 1542 1543 1544 1545 1546 1547 1548 1549 1549 1550 1550 1549 1550 1550 1552 1553
1440 1442 1440 1434 1433 1434 1437 1440 1443 1443 1442 1442 1443 1445 1448 1453 1456 1460 1466 1467 1469 1475 1474 1471 1473 1466 1454 1444 1437 1435 1439 1442 1444 1447 1446 1445 1446 1449 1452 1457 1461 1466 1470 1473 1477 1480 1483 1487 1490 1492 1496 1500 1502 1505 1509 1511 1514 1516 1519 1521 1523 1525 1527 1529 1531 1533 1535 1536 1538 1540 1541 1542 1543 1544 1546 1546 1548 1548 1549 1549 1549 1549 1549 1550 1551 1553
1440 1441 1440 1436 1433 1435 1436 1435 1434 1437 1441 1443 1444 1447 1448 1449 1451 1455 1462 1463 1460 1467 1473 1472 1470 1457 1441 1436 1431 1428 1433 1436 1436 1438 1438 1439 1442 1446 1449 1453 1458 1463 1467 1471 1475 1478 1480 1484 1488 1491 1495 1499 1501 1504 1507 1510 1513 1515 1518 1520 1522 1524 1526 1528 1530 1532 1534 1535 1537 1539 1540 1541 1542 1543 1544 1546 1547 1548 1548 1548 1548 1548 1549 1550 1551 1553
1440 1440 1440 1438 1436 1435 1431 1427 1428 1432 1437 1439 1441 1446 1447 1447 1453 1458 1465 1464 1457 1460 1466 1469 1465 1446 1429 1429 1427 1424 1428 1430 1430 1430 1431 1435 1439 1444 1448 1451 1456 1460 1464 1468 1472 1476 1479 1482 1486 1491 1494 1497 1500 1503 1506 1509 1511 1514 1516 1518 1521 1523 1525 1527 1529 1531 1533 1535 1536 1538 1539 1540 1541 1542 1543 1545 1546 1547 1547 1547 1547 1548 1549 1550 1551 1553
1438 1439 1440 1439 1436 1434 1429 1426 1429 1430 1433 1437 1437 1440 1445 1446 1449 1455 1462 1461 1457 1459 1462 1464 1460 1440 1426 1429 1428 1424 1426 1428 1429 1430 1432 1436 1440 1444 1448 1451 1456 1460 1463 1468 1471 1475 1478 1480 1484 1489 1492 1495 1498 1500 1504 1507 1509 1512 1515 1517 1519 1522 1524 1526 1528 1530 1532 1534 1535 1536 1538 1539 1540 1541 1542 1543 1544 1545 1546 1546 1546 1547 1549 1550 1551 1553
1436 1439 1440 1438 1433 1432 1430 1427 1428 1428 1432 1437 1437 1437 1441 1441 1440 1444 1450 1453 1454 1456 1457 1462 1461 1439 1425 1430 1428 1424 1427 1428 1430 1434 1435 1438 1441 1445 1448 1451 1455 1460 1463 1467 1470 1474 1477 1479 1483 1487 1490 1493 1496 1499 1502 1504 1508 1511 1513 1516 1518 1521 1524 1525 1527 1529 1531 1532 1534 1535 1536 1537 1538 1540 1541 1542 1543 1544 1545 1545 1546 1547 1548 1550 1551 1552
1435 1438 1440 1441 1440 1438 1437 1436 1435 1433 1431 1432 1433 1434 1434 1436 1439 1443 1447 1449 1450 1451 1450 1457 1459 1438 1424 1430 1428 1424 1428 1428 1430 1433 1434 1438 1441 1444 1448 1451 1455 1459 1462 1466 1469 1472 1476 1478 1481 1486 1489 1492 1495 1498 1501 1503 1506 1510 1512 1515 1517 1520 1522 1524 1526 1528 1529 1531 1532 1533 1535 1536 1537 1538 1539 1541 1542 1542 1543 1544 1545 1547 1548 1550 1551 1552
1433 1436 1437 1440 1443 1443 1441 1439 1437 1433 1429 1427 1427 1430 1432 1435 1439 1443 1446 1449 1450 1451 1449 1450 1448 1434 1424 1429 1429 1426 1428 1428 1430 1432 1433 1437 1440 1443 1447 1451 1454 1458 1461 1463 1466 1469 1473 1476 1479 1484 1487 1490 1493 1496 1500 1502 1505 1509 1511 1514 1516 1518 1520 1522 1524 1526 1528 1529 1531 1532 1533 1534 1535 1536 1538 1539 1540 1541 1542 1543 1545 1546 1548 1549 1551 1552
1431 1434 1433 1433 1434 1433 1431 1428 1426 1424 1426 1427 1426 1429 1433 1436 1438 1441 1445 1447 1447 1450 1451 1443 1439 1432 1423 1424 1428 1428 1428 1428 1429 1431 1432 1435 1439 1442 1446 1450 1453 1457 1460 1462 1465 1468 1471 1475 1478 1481 1485 1488 1491 1494 1498 1501 1504 1507 1509 1512 1515 1517 1519 1521 1523 1525 1526 1528 1529 1531 1532 1533 1534 1535 1536 1538 1539 1540 1541 1543 1545 1546 1548 1549 1550 1552
1429 1431 1430 1429 1427 1425 1423 1422 1420 1419 1421 1425 1425 1428 1432 1434 1438 1440 1442 1441 1442 1447 1448 1439 1437 1437 1425 1419 1423 1426 1426 1426 1427 1428 1429 1432 1437 1441 1445 1449 1453 1457 1460 1462 1465 1467 1470 1473 1476 1480 1483 1486 1490 1493 1496 1500 1502 1505 1508 1510 1513 1515 1517 1519 1521 1523 1525 1526 1528 1529 1530 1531 1532 1534 1535 1536 1538 1539 1541 1542 1544 1546 1547 1549 1550 1551
1428 1429 1428 1428 1424 1421 1421 1423 1421 1418 1417 1420 1421 1424 1429 1433 1435 1435 1436 1437 1436 1437 1436 1433 1434 1434 1423 1416 1418 1421 1422 1423 1423 1426 1428 1431 1436 1440 1444 1448 1452 1455 1458 1460 1463 1465 1468 1471 1474 1478 1481 1484 1488 1491 1495 1498 1500 1503 1506 1509 1511 1513 1516 1518 1520 1521 1523 1525 1526 1527 1528 1530 1531 1532 1534 1535 1537 1539 1540 1542 1544 1545 1547 1548 1550 1551
1427 1427 1426 1427 1423 1418 1419 1423 1422 1419 1417 1418 1419 1419 1423 1428 1430 1429 1430 1434 1433 1430 1430 1432 1432 1426 1417 1415 1417 1419 1421 1423 1424 1427 1429 1432 1436 1439 1442 1446 1450 1453 1455 1457 1460 1463 1466 1469 1473 1476 1480 1482 1486 1489 1492 1496 1498 1501 1504 1507 1509 1511 1514 1516 1518 1520 1521 1523 1524 1526 1527 1528 1530 1531 1533 1534 1536 1538 1540 1541 1543 1545 1547 1548 1549 1551
1427 1428 1427 1427 1423 1417 1416 1419 1420 1418 1415 1416 1420 1421 1421 1424 1428 1429 1431 1435 1435 1431 1433 1438 1435 1424 1417 1418 1419 1419 1421 1423 1425 1427 1428 1431 1434 1437 1441 1445 1447 1450 1453 1456 1459 1462 1465 1468 1472 1475 1477 1480 1483 1487 1490 1494 1497 1499 1502 1504 1507 1509 1512 1514 1516 1518 1520 1521 1522 1524 1525 1527 1528 1530 1532 1533 1535 1537 1539 1541 1542 1544 1546 1547 1549 1550
1426 1428 1426 1426 1425 1419 1415 1419 1421 1418 1415 1416 1420 1423 1425 1425 1426 1427 1429 1431 1430 1427 1432 1439 1434 1421 1415 1418 1420 1419 1420 1421 1423 1425 1427 1429 1431 1434 1438 1442 1445 1448 1451 1454 1457 1460 1463 1466 1469 1472 1475 1478 1481 1485 1488 1492 1495 1497 1499 1502 1505 1507 1510 1512 1514 1516 1518 1519 1521 1522 1524 1526 1527 1529 1531 1533 1535 1536 1538 1540 1542 1544 1546 1547 1548 1549
1425 1425 1423 1427 1427 1419 1418 1422 1420 1417 1422 1423 1418 1417 1420 1422 1422 1423 1424 1425 1424 1422 1425 1429 1423 1415 1415 1418 1419 1420 1420 1420 1420 1420 1422 1425 1429 1433 1435 1438 1441 1444 1448 1451 1455 1457 1460 1463 1465 1469 1472 1475 1479 1482 1486 1490 1492 1495 1498 1501 1503 1506 1508 1510 1512 1514 1516 1517 1519 1521 1522 1524 1526 1528 1530 1531 1533 1535 1537 1539 1541 1543 1545 1546 1547 1549
1423 1422 1424 1429 1425 1418 1420 1422 1419 1422 1427 1422 1415 1414 1415 1415 1415 1417 1418 1419 1420 1420 1418 1417 1416 1416 1417 1416 1413 1415 1416 1415 1414 1414 1416 1420 1425 1429 1433 1436 1439 1443 1446 1450 1452 1455 1458 1461 1465 1468 1471 1474 1477 1481 1485 1489 1491 1494 1497 1499 1502 1504 1506 1508 1510 1511 1514 1516 1517 1519 1521 1523 1525 1526 1528 1530 1532 1534 1536 1538 1540 1542 1544 1545 1546 1547
1421 1422 1426 1430 1427 1423 1422 1421 1424 1429 1424 1415 1415 1419 1417 1416 1415 1413 1412 1414 1416 1418 1416 1413 1413 1415 1415 1414 1411 1412 1414 1414 1414 1417 1419 1420 1422 1425 1429 1433 1437 1441 1445 1448 1451 1454 1458 1461 1463 1466 1469 1472 1476 1480 1484 1487 1489 1492 1495 1497 1500 1501 1503 1505 1507 1509 1512 1514 1516 1518 1520 1521 1523 1525 1527 1529 1531 1533 1535 1537 1539 1541 1542 1544 1545 1546
1419 1423 1426 1429 1430 1428 1425 1425 1428 1427 1418 1412 1417 1420 1417 1418 1418 1415 1415 1415 1414 1416 1414 1409 1409 1413 1415 1415 1414 1413 1414 1415 1417 1419 1421 1422 1423 1424 1427 1429 1433 1436 1440 1442 1446 1449 1453 1456 1459 1462 1466 1470 1474 1477 1481 1484 1487 1490 1492 1495 1497 1499 1501 1504 1505 1508 1510 1512 1514 1516 1518 1520 1522 1523 1525 1527 1529 1532 1534 1536 1538 1540 1541 1542 1544 1545
1419 1424 1425 1427 1430 1431 1429 1428 1425 1422 1419 1415 1414 1415 1414 1414 1414 1414 1414 1412 1410 1413 1412 1407 1408 1412 1413 1414 1414 1414 1414 1416 1419 1420 1420 1421 1423 1425 1426 1428 1431 1434 1436 1440 1443 1447 1450 1454 1457 1461 1465 1468 1472 1475 1479 1482 1485 1487 1490 1493 1495 1498 1500 1502 1504 1506 1509 1511 1513 1515 1517 1518 1520 1522 1524 1526 1528 1530 1533 1535 1537 1538 1540 1541 1543 1544
1420 1422 1423 1424 1430 1432 1430 1427 1426 1426 1424 1417 1411 1412 1412 1412 1412 1413 1412 1409 1407 1409 1409 1407 1408 1411 1412 1413 1414 1413 1414 1417 1419 1417 1417 1418 1421 1424 1427 1430 1432 1435 1438 1441 1445 1448 1451 1455 1458 1461 1464 1467 1470 1473 1477 1480 1483 1485 1488 1491 1493 1495 1498 1500 1502 1505 1507 1509 1511 1513 1515 1516 1518 1520 1522 1524 1527 1529 1532 1534 1536 1538 1539 1540 1542 1543
1421 1422 1423 1423 1427 1430 1427 1425 1429 1428 1420 1414 1411 1410 1410 1411 1410 1411 1414 1412 1405 1404 1407 1407 1408 1410 1410 1411 1412 1411 1413 1417 1416 1411 1410 1414 1418 1421 1425 1428 1432 1436 1438 1441 1444 1446 1450 1453 1456 1459 1462 1465 1468 1471 1475 1478 1481 1483 1486 1489 1491 1493 1495 1497 1500 1503 1505 1508 1510 1511 1513 1515 1517 1519 1521 1523 1526 1528 1531 1533 1535 1537 1538 1540 1541 1543
1421 1421 1424 1423 1425 1430 1428 1426 1428 1424 1415 1411 1411 1409 1409 1409 1407 1412 1421 1415 1404 1402 1405 1404 1405 1408 1408 1410 1412 1411 1410 1411 1410 1407 1408 1412 1416 1419 1423 1426 1430 1433 1437 1439 1443 1446 1448 1451 1454 1456 1459 1462 1465 1469 1473 1477 1479 1481 1484 1487 1489 1491 1493 1495 1498 1501 1504 1506 1508 1510 1512 1514 1516 1518 1520 1522 1525 1527 1530 1532 1534 1536 1537 1539 1540 1541
1423 1423 1428 1426 1424 1429 1429 1425 1425 1421 1412 1410 1410 1408 1407 1407 1409 1417 1419 1410 1402 1403 1403 1402 1403 1405 1406 1407 1409 1408 1407 1406 1406 1407 1409 1412 1415 1418 1422 1425 1429 1432 1435 1438 1441 1444 1447 1449 1452 1454 1457 1460 1463 1467 1471 1474 1477 1479 1482 1484 1486 1489 1491 1494 1497 1500 1502 1505 1507 1509 1511 1513 1515 1517 1519 1521 1524 1527 1529 1531 1533 1535 1536 1538 1539 1540
1426 1427 1430 1427 1426 1430 1429 1425 1426 1421 1412 1409 1410 1408 1406 1409 1413 1416 1410 1404 1404 1404 1401 1401 1402 1402 1403 1405 1405 1405 1406 1407 1407 1408 1410 1412 1414 1416 1420 1424 1427 1431 1434 1437 1439 1442 1444 1447 1450 1453 1456 1459 1461 1465 1468 1472 1474 1477 1479 1482 1485 1488 1490 1493 1496 1498 1501 1503 1505 1507 1509 1511 1513 1516 1518 1520 1523 1525 1527 1529 1531 1533 1535 1536 1538 1539
1423 1425 1426 1426 1427 1430 1429 1429 1429 1422 1412 1410 1410 1408 1408 1410 1411 1409 1406 1405 1405 1403 1401 1401 1401 1401 1403 1404 1404 1406 1408 1408 1409 1410 1411 1413 1415 1417 1419 1422 1425 1428 1431 1434 1436 1439 1442 1445 1448 1451 1454 1457 1460 1463 1467 1470 1472 1475 1477 1481 1484 1486 1488 1491 1494 1497 1499 1502 1504 1506 1508 1510 1512 1514 1516 1518 1521 1523 1525 1527 1530 1531 1533 1535 1536 1538
1419 1421 1423 1423 1424 1425 1425 1425 1422 1415 1410 1410 1409 1408 1409 1409 1408 1407 1407 1406 1404 1402 1403 1402 1401 1402 1404 1404 1405 1407 1408 1409 1411 1412 1413 1414 1416 1417 1419 1421 1423 1426 1429 1431 1434 1437 1441 1443 1446 1449 1452 1455 1458 1461 1465 1468 1471 1473 1476 1480 1483 1484 1487 1490 1493 1495 1498 1501 1503 1505 1507 1508 1510 1513 1515 1517 1519 1521 1523 1526 1528 1529 1531 1533 1535 1536
1416 1417 1417 1417 1418 1419 1418 1416 1413 1410 1410 1411 1409 1408 1409 1409 1408 1409 1408 1406 1405 1404 1403 1403 1403 1404 1404 1405 1406 1407 1408 1410 1411 1412 1414 1415 1416 1418 1420 1421 1423 1425 1428 1431 1434 1436 1439 1442 1444 1447 1450 1453 1456 1459 1463 1466 1469 1472 1475 1478 1480 1482 1486 1489 1491 1493 1496 1499 1501 1503 1505 1507 1509 1511 1514 1516 1518 1520 1522 1524 1526 1528 1530 1531 1533 1535
1416 1416 1415 1413 1415 1417 1416 1413 1412 1411 1411 1410 1409 1408 1409 1410 1409 1409 1409 1408 1407 1406 1405 1405 1405 1405 1405 1406 1407 1407 1408 1409 1410 1412 1414 1415 1416 1418 1419 1421 1423 1425 1428 1430 1432 1434 1438 1441 1444 1446 1448 1451 1455 1458 1462 1465 1468 1471 1474 1476 1478 1481 1484 1487 1489 1492 1495 1497 1499 1501 1503 1505 1507 1510 1512 1514 1516 1518 1520 1522 1524 1526 1528 1530 1532 1533
1416 1415 1414 1413 1415 1416 1414 1412 1412 1411 1411 1410 1410 1408 1409 1410 1410 1409 1409 1409 1408 1408 1408 1408 1408 1408 1408 1408 1407 1408 1408 1408 1409 1411 1413 1414 1416 1417 1418 1420 1422 1424 1426 1429 1431 1434 1436 1439 1442 1444 1447 1450 1453 1457 1460 1464 1467 1470 1472 1474 1476 1480 1483 1485 1487 1490 1493 1495 1497 1499 1501 1503 1506 1508 1510 1512 1514 1517 1519 1521 1523 1525 1526 1528 1530 1532
1414 1413 1414 1414 1415 1415 1413 1411 1411 1411 1410 1410 1409 1408 1409 1410 1411 1410 1410 1410 1409 1409 1409 1409 1409 1409 1409 1408 1409 1408 1408 1409 1409 1410 1411 1413 1415 1416 1418 1420 1421 1423 1426 1428 1431 1433 1435 1438 1441 1443 1446 1450 1453 1456 1459 1463 1465 1468 1470 1473 1475 1478 1480 1483 1486 1488 1491 1493 1495 1497 1500 1502 1504 1506 1508 1510 1512 1514 1516 1518 1520 1522 1524 1527 1528 1530
1414 1413 1414 1415 1416 1415 1413 1411 1411 1411 1410 1410 1409 1409 1410 1411 1412 1412 1412 1411 1411 1411 1410 1410 1410 1410 1410 1410 1409 1409 1409 1410 1410 1411 1412 1413 1414 1415 1417 1419 1421 1423 1425 1427 1430 1432 1434 1437 1439 1442 1445 1449 1452 1455 1458 1461 1464 1466 1469 1471 1473 1476 1479 1482 1484 1487 1489 1491 1494 1496 1498 1500 1502 1504 1506 1508 1510 1512 1514 1516 1518 1521 1523 1525 1526 1528
1413 1413 1415 1416 1416 1414 1412 1409 1409 1410 1410 1410 1410 1410 1411 1412 1413 1413 1413 1413 1413 1413 1412 1412 1412 1411 1411 1411 1411 1411 1411 1411 1411 1412 1412 1413 1414 1416 1417 1419 1421 1423 1424 1427 1430 1432 1434 1436 1438 1440 1444 1447 1451 1454 1457 1460 1462 1465 1468 1470 1472 1475 1477 1480 1482 1485 1487 1489 1492 1494 1496 1498 1500 1502 1504 1506 1508 1510 1513 1515 1518 1520 1522 1523 1525 1527
1412 1413 1413 1413 1413 1411 1409 1408 1409 1409 1409 1410 1411 1412 1412 1413 1414 1414 1414 1414 1415 1414 1414 1414 1414 1414 1414 1413 1413 1413 1413 1412 1413 1413 1413 1414 1415 1416 1417 1419 1421 1422 1424 1427 1429 1431 1434 1436 1438 1441 1444 1446 1450 1453 1455 1458 1461 1464 1466 1468 1470 1473 1476 1478 1480 1482 1485 1487 1490 1492 1494 1496 1498 1500 1502 1504 1506 1509 1511 1513 1516 1518 1520 1522 1524 1526